Location: Rounton
(54.4000°N, 1.3500°W)
Time: 02:58:21
(UTC+00:00)

Transit 4A - Pass Details

Date: 03 December 2021
Orbit: 864 x 981 km, 66.8° (Epoch: 19 January)

Event Time Altitude Azimuth Distance (km) Brightness Sun altitude
Exits shadow 03:11:22 17° 119° (ESE) 2,220 10.1 -41.3°
Drops below altitude 10° 03:12:46 10° 123° (ESE) 2,711 10.6 -41.1°
Sets 03:15:23 0° 126° (SE) 3,665 11.4 -40.7°
